[[{"header":{"parameterUnit":"m.s-1","parameterCategory":1,"la1":30.2991,"la2":30.254,"lo1":-89.0895,"lo2":-89.0444,"dy":0.0017,"dx":0.0017,"nx":28,"ny":28,"refTime":"2025-09-11T21:00:00:Z","depth":0,"parameterNumber":2,"parameterNumberName":"U-component_of_WINDS"},"data":[0,0,0,0,0,0,0,0,0,0,0,0,0,0,0,0,0,0,0,0,0,0,0,0,0,0,0,0,0,0,0,0,0,0,0,0,0,0,0,0,0,0,0,0,0,0,0,0,0,0,0,0,0,0,0,0,0,0,-1.0113,-1.0114,0,-1.013,-1.013,-1.013,-1.0095,-1.0093,-1.0092,-1.0091,-1.0108,-1.011,-1.0111,0,0,0,0,0,0,0,0,0,0,0,0,0,-1.0052,-1.0053,-1.0113,-1.0114,-1.0114,-1.013,-1.013,-1.013,-1.0095,-1.0093,-1.0092,-1.0091,-1.0108,-1.011,-1.0112,0,0,0,0,0,0,0,0,0,0,0,0,0,-1.0074,-1.0054,-1.0113,-1.0098,-1.0097,-1.013,-1.013,-1.013,-1.0095,-1.0093,-1.0092,-1.009,-1.0107,-1.011,-1.0112,-1.0161,0,0,-1.0119,-1.012,0,0,0,0,0,0,0,0,-1.0073,-1.0077,-1.01,-1.0099,-1.0098,-1.0108,-1.0115,-1.0141,-1.0095,-1.0096,-1.0091,-1.0089,-1.011,-1.0112,-1.0119,-1.0161,-1.0162,-1.0119,-1.0121,-1.0121,-1.0122,0,0,0,0,0,0,0,-1.0072,-1.0076,-1.012,-1.01,-1.0099,-1.009,-1.0092,-1.0119,-1.0112,-1.0096,-1.0093,-1.0095,-1.0109,-1.0117,-1.0119,-1.0162,-1.0119,-1.0121,-1.0123,-1.0123,-1.0247,-1.0249,0,0,0,0,0,0,-1.0072,-1.0075,-1.0119,-1.012,-1.0081,-1.0093,-1.0094,-1.0107,-1.0112,-1.0111,-1.0097,-1.0094,-1.0114,-1.0116,-1.0119,-1.0178,-1.0121,-1.0124,-1.0125,-1.0245,-1.0247,-1.0249,0,0,0,0,0,0,-1.0071,-1.0076,-1.0119,-1.0097,-1.0102,-1.0096,-1.011,-1.0108,-1.0116,-1.0113,-1.0111,-1.0106,-1.0112,-1.0116,-1.0151,-1.0178,-1.0125,-1.0127,-1.0243,-1.0246,-1.0248,-1.0294,0,0,0,0,0,0,-1.0069,-1.0076,-1.0095,-1.0098,-1.0103,-1.015,-1.0112,-1.011,-1.012,-1.0116,-1.0121,-1.012,-1.0111,-1.0148,-1.0153,-1.018,-1.0129,-1.024,-1.0244,-1.0247,-1.0291,-1.0299,-1.0305,0,0,0,0,0,-1.0067,-1.0107,-1.0096,-1.0101,-1.0126,-1.0152,-1.0155,-1.0143,-1.0122,-1.0141,-1.0139,-1.012,-1.0174,-1.0151,-1.0157,-1.0185,-1.0238,-1.0243,-1.0247,-1.0287,-1.0297,-1.0305,0,0,0,0,0,0,-1.0107,-1.0107,-1.0095,-1.0136,-1.0144,-1.0146,-1.0169,-1.0154,-1.0168,-1.0164,-1.0149,-1.015,-1.0188,-1.019,-1.0165,-1.0233,-1.0202,-1.0208,-1.0231,-1.024,-1.0248,-1.0247,-1.013,0,0,0,0,0,-1.0121,-1.0142,-1.014,-1.0177,-1.0182,-1.0175,-1.0186,-1.0176,-1.0184,-1.0187,-1.0187,-1.0196,-1.0214,-1.0227,-1.0244,-1.029,-1.0291,-1.0312,-1.032,-1.0326,-1.0331,-1.0357,-1.0366,-1.0263,-1.0263,-1.0263,0,0,-1.015,-1.0152,-1.0166,-1.0186,-1.0191,-1.0213,-1.0178,-1.0203,-1.0219,-1.0191,-1.0224,-1.0224,-1.0233,-1.0274,-1.0291,-1.0276,-1.036,-1.0331,-1.0336,-1.0338,-1.0362,-1.0372,-1.038,-1.0266,-1.0266,-1.0265,0,0,-1.0214,-1.0217,-1.0249,-1.0255,-1.0262,-1.0257,-1.0265,-1.0268,-1.0268,-1.0301,-1.028,-1.0299,-1.0331,-1.0338,-1.0346,-1.0412,-1.0396,-1.0418,-1.0458,-1.0482,-1.0491,-1.0498,-1.0523,-1.0532,-1.0423,-1.0423,-1.0424,0,-1.0249,-1.0281,-1.0267,-1.0294,-1.0303,-1.0278,-1.031,-1.0316,-1.033,-1.0337,-1.0319,-1.0359,-1.0363,-1.0405,-1.0422,-1.0428,-1.0437,-1.0418,-1.049,-1.0498,-1.0504,-1.0528,-1.0537,-1.0426,-1.0426,-1.0426,-1.0425,0,-1.0324,-1.0347,-1.0372,-1.0385,-1.0397,-1.0427,-1.0417,-1.0431,-1.042,-1.0417,-1.0451,-1.0454,-1.0472,-1.0481,-1.047,-1.0522,-1.0513,-1.0493,-1.0462,-1.0517,-1.0539,-1.0548,-1.043,-1.0429,-1.0428,-1.0428,0,0,-1.0416,-1.042,-1.043,-1.0436,-1.0443,-1.046,-1.0488,-1.0505,-1.0518,-1.0527,-1.0551,-1.0579,-1.0561,-1.057,-1.056,-1.0581,-1.0635,-1.0559,-1.0559,-1.0574,-1.0694,-1.071,-1.072,-1.0624,-1.0625,-1.0627,-1.0693,0,-1.048,-1.0529,-1.0517,-1.0565,-1.0587,-1.0562,-1.0587,-1.0594,-1.0591,-1.0609,-1.0606,-1.0627,-1.0601,-1.0606,-1.0626,-1.0624,-1.0659,-1.0619,-1.0647,-1.0648,-1.0647,-1.0732,-1.0749,-1.0812,-1.0702,-1.0703,-1.0704,0,-1.0562,-1.0575,-1.0626,-1.0629,-1.0638,-1.066,-1.0675,-1.0692,-1.0699,-1.0696,-1.0706,-1.0692,-1.072,-1.0687,-1.0726,-1.0699,-1.071,-1.071,-1.0713,-1.0716,-1.0681,-1.0739,-1.0831,-1.0841,-1.0717,-1.0716,-1.0715,0,-1.0625,-1.0655,-1.069,-1.0695,-1.07,-1.0716,-1.0719,-1.0725,-1.0736,-1.0748,-1.0756,-1.0771,-1.0781,-1.0793,-1.0784,-1.0761,-1.0825,-1.0791,-1.0824,-1.0824,-1.084,-1.0839,-1.0937,-1.0843,-1.0843,-1.0843,-1.0843,0,-1.07,-1.0732,-1.0718,-1.074,-1.0775,-1.0761,-1.0796,-1.0796,-1.0801,-1.0822,-1.0802,-1.0822,-1.0807,-1.0826,-1.0819,-1.0853,-1.0857,-1.0855,-1.0853,-1.0858,-1.0859,-1.0866,-1.0862,-1.0846,-1.0845,-1.0845,-1.0844,0,-1.0777,-1.0769,-1.0805,-1.0807,-1.0808,-1.0834,-1.0835,-1.0855,-1.085,-1.0878,-1.0883,-1.0876,-1.0898,-1.0889,-1.0911,-1.0906,-1.0951,-1.0942,-1.0949,-1.0947,-1.098,-1.0978,-1.1087,-1.1102,-1.0998,-1.0999,-1.1,0,-1.0826,-1.085,-1.0854,-1.0867,-1.0871,-1.0892,-1.0903,-1.0889,-1.0902,-1.0912,-1.0931,-1.095,-1.0966,-1.1001,-1.0998,-1.1015,-1.1008,-1.1045,-1.1011,-1.1015,-1.101,-1.101,-1.1013,-1.1053,-1.1054,-1.1055,-1.1056,0,-1.0914,-1.0909,-1.0926,-1.0942,-1.0956,-1.0968,-1.0978,-1.0989,-1.0976,-1.0991,-1.1013,-1.1024,-1.1047,-1.1067,-1.1083,-1.1085,-1.1069,-1.1066,-1.1075,-1.1081,-1.1085,-1.1085,-1.0969,-1.1064,-1.1063,-1.1063,-1.1062,-1.1062,-1.098,-1.1001,-1.1007,-1.1027,-1.1033,-1.1042,-1.1062,-1.1059,-1.1077,-1.1095,-1.1086,-1.1111,-1.1118,-1.1136,-1.1141,-1.1161,-1.1147,-1.1159,-1.1163,-1.1166,-1.1171,-1.108,-1.1164,-1.1164,-1.1163,-1.1163,-1.1163,0,-1.1068,-1.1071,-1.1089,-1.1104,-1.112,-1.1102,-1.1112,-1.1126,-1.1149,-1.1156,-1.1171,-1.1197,-1.1216,-1.1214,-1.1232,-1.1248,-1.1241,-1.1254,-1.1253,-1.1255,-1.1183,-1.1174,-1.1259,-1.1259,-1.1259,-1.1259,-1.1259,-1.1259,-1.1116,-1.1151,-1.1147,-1.1184,-1.1186,-1.1211,-1.1219,-1.1228,-1.1234,-1.1263,-1.1279,-1.1277,-1.1281,-1.1299,-1.1316,-1.1315,-1.1324,-1.1339,-1.1336,-1.1269,-1.1259,-1.125,-1.1242,-1.1341,-1.1341,-1.1406,-1.1407,-1.1407]},{"header":{"parameterUnit":"m.s-1","parameterCategory":1,"la1":30.2991,"la2":30.254,"lo1":-89.0895,"lo2":-89.0444,"dy":0.0017,"dx":0.0017,"nx":28,"ny":28,"refTime":"2025-09-11T21:00:00:Z","depth":0,"parameterNumber":3,"parameterNumberName":"V-component_of_WINDS"},"data":[0,0,0,0,0,0,0,0,0,0,0,0,0,0,0,0,0,0,0,0,0,0,0,0,0,0,0,0,0,0,0,0,0,0,0,0,0,0,0,0,0,0,0,0,0,0,0,0,0,0,0,0,0,0,0,0,0,0,-3.6999,-3.6999,0,-3.7036,-3.7036,-3.7036,-3.6997,-3.6996,-3.6994,-3.6993,-3.7026,-3.7029,-3.7031,0,0,0,0,0,0,0,0,0,0,0,0,0,-3.689,-3.6892,-3.6999,-3.6999,-3.7,-3.7036,-3.7036,-3.7037,-3.6997,-3.6996,-3.6994,-3.6992,-3.7026,-3.7028,-3.7031,0,0,0,0,0,0,0,0,0,0,0,0,0,-3.6933,-3.6893,-3.6999,-3.6984,-3.6984,-3.7036,-3.7036,-3.7037,-3.6998,-3.6996,-3.6993,-3.6991,-3.7025,-3.7028,-3.7031,-3.7098,0,0,-3.7042,-3.7043,0,0,0,0,0,0,0,0,-3.6931,-3.6937,-3.6986,-3.6986,-3.6985,-3.701,-3.701,-3.7057,-3.6998,-3.6992,-3.6993,-3.699,-3.7022,-3.7026,-3.7038,-3.7099,-3.7101,-3.7042,-3.7044,-3.7046,-3.7047,0,0,0,0,0,0,0,-3.6928,-3.6935,-3.7013,-3.6987,-3.6986,-3.6975,-3.6979,-3.7019,-3.7019,-3.6993,-3.699,-3.6995,-3.7021,-3.7034,-3.7038,-3.7101,-3.7042,-3.7045,-3.7047,-3.7049,-3.7221,-3.7223,0,0,0,0,0,0,-3.6927,-3.6933,-3.7012,-3.7014,-3.6952,-3.6979,-3.6983,-3.7004,-3.7019,-3.7019,-3.6997,-3.6993,-3.703,-3.7034,-3.7039,-3.7119,-3.7046,-3.7049,-3.7051,-3.7218,-3.7221,-3.7224,0,0,0,0,0,0,-3.6925,-3.6934,-3.701,-3.6973,-3.6982,-3.6983,-3.7007,-3.7006,-3.7019,-3.7022,-3.7022,-3.701,-3.7028,-3.7034,-3.7084,-3.712,-3.7051,-3.7054,-3.7215,-3.7219,-3.7223,-3.7279,0,0,0,0,0,0,-3.6922,-3.6934,-3.696,-3.6974,-3.6984,-3.7056,-3.7009,-3.7008,-3.7025,-3.7021,-3.7035,-3.7035,-3.7027,-3.7079,-3.7088,-3.7123,-3.7056,-3.7212,-3.7217,-3.7221,-3.7274,-3.7285,-3.7293,0,0,0,0,0,-3.6918,-3.6973,-3.6961,-3.6971,-3.7017,-3.7058,-3.7064,-3.7055,-3.7028,-3.7054,-3.7056,-3.7034,-3.7114,-3.7085,-3.7094,-3.7131,-3.721,-3.7216,-3.7221,-3.727,-3.7283,-3.7293,0,0,0,0,0,0,-3.6961,-3.6975,-3.6962,-3.7023,-3.704,-3.7052,-3.7084,-3.7068,-3.7092,-3.7086,-3.7073,-3.7076,-3.713,-3.7135,-3.7102,-3.7197,-3.7158,-3.7165,-3.7192,-3.7204,-3.7213,-3.7211,-3.7059,0,0,0,0,0,-3.6978,-3.7012,-3.7021,-3.7075,-3.7084,-3.7083,-3.71,-3.7092,-3.7108,-3.7115,-3.7121,-3.7136,-3.7165,-3.7184,-3.7211,-3.7274,-3.7277,-3.7304,-3.7314,-3.7322,-3.7329,-3.7364,-3.7377,-3.7242,-3.7242,-3.7242,0,0,-3.7013,-3.7025,-3.7047,-3.7084,-3.7096,-3.7131,-3.7089,-3.7127,-3.7152,-3.712,-3.7169,-3.7173,-3.719,-3.7248,-3.7273,-3.7254,-3.7367,-3.7329,-3.7335,-3.7338,-3.7372,-3.7384,-3.7396,-3.7246,-3.7246,-3.7245,0,0,-3.7095,-3.7107,-3.7154,-3.7167,-3.7187,-3.7186,-3.7197,-3.7211,-3.7214,-3.7262,-3.7239,-3.7268,-3.7318,-3.7331,-3.7344,-3.7432,-3.7413,-3.7441,-3.7491,-3.7526,-3.7537,-3.7546,-3.7579,-3.7591,-3.7448,-3.7448,-3.7448,0,-3.7136,-3.7189,-3.7179,-3.722,-3.7237,-3.7211,-3.7258,-3.7271,-3.7297,-3.7309,-3.7287,-3.735,-3.7359,-3.742,-3.7442,-3.7453,-3.7465,-3.744,-3.7536,-3.7545,-3.7554,-3.7585,-3.7597,-3.7451,-3.7451,-3.7451,-3.745,0,-3.7238,-3.7275,-3.731,-3.7339,-3.736,-3.7403,-3.7399,-3.7421,-3.7411,-3.7412,-3.7462,-3.7472,-3.7501,-3.7515,-3.7504,-3.7575,-3.7562,-3.7538,-3.7499,-3.757,-3.76,-3.7611,-3.7456,-3.7455,-3.7454,-3.7453,0,0,-3.7349,-3.7373,-3.7386,-3.74,-3.742,-3.7448,-3.7489,-3.7519,-3.7539,-3.7558,-3.7593,-3.7636,-3.7615,-3.763,-3.762,-3.7651,-3.7722,-3.7623,-3.7623,-3.7642,-3.7802,-3.7821,-3.7835,-3.7709,-3.7711,-3.7712,-3.7801,0,-3.7433,-3.7508,-3.7501,-3.7572,-3.7606,-3.7582,-3.7619,-3.7635,-3.7637,-3.7665,-3.7666,-3.7698,-3.7666,-3.7676,-3.7704,-3.7707,-3.7754,-3.77,-3.7741,-3.7743,-3.774,-3.785,-3.787,-3.7953,-3.7812,-3.7814,-3.7815,0,-3.7541,-3.7566,-3.7642,-3.7658,-3.7672,-3.7706,-3.7733,-3.7761,-3.7778,-3.7777,-3.7795,-3.7781,-3.7822,-3.7781,-3.7838,-3.7802,-3.7818,-3.7822,-3.7825,-3.783,-3.7785,-3.7859,-3.7979,-3.7992,-3.7833,-3.7831,-3.783,0,-3.7616,-3.7669,-3.7721,-3.7733,-3.7753,-3.7778,-3.7786,-3.7802,-3.7821,-3.7844,-3.7856,-3.7883,-3.7898,-3.7919,-3.7913,-3.7883,-3.7972,-3.793,-3.7973,-3.7973,-3.7994,-3.7993,-3.812,-3.8001,-3.8001,-3.8001,-3.8001,0,-3.7712,-3.7759,-3.7756,-3.7788,-3.7841,-3.7831,-3.7883,-3.7888,-3.7903,-3.7935,-3.7914,-3.7945,-3.7933,-3.7963,-3.7957,-3.8007,-3.8013,-3.8014,-3.8012,-3.8017,-3.8017,-3.8028,-3.8023,-3.8004,-3.8003,-3.8003,-3.8002,0,-3.7806,-3.7805,-3.7861,-3.7876,-3.7881,-3.7919,-3.7931,-3.7961,-3.7962,-3.8003,-3.8012,-3.8013,-3.8047,-3.8042,-3.8079,-3.8075,-3.8137,-3.8127,-3.8132,-3.8131,-3.8175,-3.8171,-3.8314,-3.8333,-3.8201,-3.8202,-3.8203,0,-3.7868,-3.7904,-3.7924,-3.7945,-3.7956,-3.799,-3.801,-3.8002,-3.8023,-3.8046,-3.8074,-3.8106,-3.8132,-3.8187,-3.819,-3.8219,-3.8211,-3.8259,-3.8215,-3.8219,-3.8214,-3.8212,-3.8217,-3.8268,-3.827,-3.8271,-3.8272,0,-3.7978,-3.7977,-3.8007,-3.8038,-3.8063,-3.8086,-3.8107,-3.8125,-3.8119,-3.8144,-3.8179,-3.82,-3.8239,-3.8271,-3.8298,-3.8306,-3.8289,-3.8286,-3.8297,-3.8303,-3.8306,-3.8307,-3.8158,-3.8283,-3.8282,-3.8281,-3.828,-3.828,-3.8059,-3.8091,-3.8111,-3.8146,-3.8161,-3.8181,-3.8211,-3.8216,-3.8246,-3.8279,-3.8271,-3.8312,-3.8328,-3.8363,-3.8374,-3.8405,-3.8387,-3.8404,-3.8408,-3.8413,-3.8419,-3.8299,-3.8409,-3.8409,-3.8409,-3.8409,-3.8408,0,-3.8171,-3.8182,-3.8214,-3.8246,-3.8273,-3.8255,-3.8278,-3.8302,-3.8338,-3.8356,-3.8382,-3.8424,-3.8455,-3.8461,-3.8491,-3.8515,-3.8508,-3.8524,-3.8523,-3.8525,-3.8432,-3.842,-3.8529,-3.8529,-3.8529,-3.8529,-3.8529,-3.8529,-3.8232,-3.8286,-3.8287,-3.8348,-3.8358,-3.84,-3.8414,-3.8433,-3.8447,-3.8495,-3.8522,-3.8526,-3.8539,-3.857,-3.8599,-3.8599,-3.8612,-3.8632,-3.8629,-3.8543,-3.8531,-3.852,-3.8508,-3.8634,-3.8634,-3.872,-3.872,-3.8721]}]]